Weather in Yekaterinogradskaya

Russia / The Kabardino-Balkar Republic     43°45′38″N   44°13′54″E
temp.,
°C
wind,
m/s
gust,
m/s
humid.,
%
clouds,
%
prec.,
mm/h
press.,
hPa
HPBL,
m
5 december, sun
sun500:00+5e22555 0.0 101310
03:00+4ene115618 0.0 101210
06:00+4n1158100 0.0 101110
09:00+6nw2253100 0.0 101351
12:00+9nw1142100 0.0 1012272
15:00+10e1146100 0.0 101316
18:00+8nne005199 0.0 101510
21:00+7ssw015470 0.0 101610
6 december, mon
mon600:00+6w11555 0.0 101710
03:00+5wnw11585 0.0 101910
06:00+4wsw116337 0.0 102010
09:00+6sse00595 0.0 102136
12:00+10e23445 0.0 1020363
15:00+11ene344822 0.0 1021386
18:00+7e337042 0.0 102334
21:00+6e227825 0.0 102312
7 december, tue
tue700:00+5e11770 0.0 102210
03:00+4ene11770 0.0 102310
06:00+4ese11860 0.0 102310
09:00+5e12780 0.0 102363
12:00+10e23610 0.0 1020343
15:00+11e45600 0.0 1019437
18:00+7e35820 0.0 101881
21:00+5ene47937 0.0 1016152
8 december, wed
wed800:00+6e369473 0.0 1014189
03:00+6e238985 0.0 101381
06:00+7se118797 0.0 101217
09:00+7ssw107978 0.0 1012327
12:00+10sw116889 0.0 1010460
15:00+10wsw12630 0.0 1009408
18:00+8wsw22760 0.0 101014
21:00+7w338357 0.0 101042
9 december, thu
thu900:00+6w22885 0.0 101126
03:00+6wsw3488100 0.0 101360
06:00+6wsw3476100 0.0 101563
09:00+8wsw3464100 0.0 101669
12:00+12w3550100 0.0 1016309
15:00+12ssw1258100 0.0 101846
18:00+10sw2269100 0.0 102016
21:00+10sw227685 0.0 102131